Location: Camerons Lookout
(40.9833°S, 175.9333°E)
Time: 17:16:38
(UTC+00:00)

USA 267 - Pass Details

Date: 14 January 2026
Orbit: 1101 x 1107 km, 123.0° (Epoch: 10 January)

Event Time Altitude Azimuth Distance (km) Brightness Sun altitude
Rises 11:18:07 0° 125° (SE) 3,954 6.4 -25.8°
Reaches altitude 10° 11:21:01 10° 113° (ESE) 2,990 5.6 -26.0°
Enters shadow 11:24:55 26° 80° (E) 2,030 4.4 -26.2°
